Flag for Germany Weather past 2 weeks in Remscheid, North Rhine-Westphalia, Germany

Now
52 °F

Sunny.


Feels Like: 49 °F
Forecast: 46 / 62 °F
Wind: 7 mph from Southwest

Location: Duesseldorf

Current Time: Aug 20, 2014 at 8:59:13 AM

Latest Report: Aug 20, 2014 at 8:20 AM


Visibility: 10 mi

Pressure: 30.01 "Hg

Humidity: 82%

Dew point: 46 °F

Location of RemscheidLocation

Historic Weather in Remscheid — Graph

°F

Remscheid temperature yesterday

Maximum temperature yesterday: 61 °F (at 2:20 PM)
Minimum temperature yesterday: 48 °F (at 11:50 PM)
Average temperature yesterday: 56 °F

Past Weeks' High & Low Weather Summary

 TemperatureHumidityPressure
High77 °F (Aug 7, 4:50 PM)94% (Aug 7, 1:50 AM)30.09 "Hg (Aug 7, 1:50 AM)
Low46 °F (Aug 20, 2:50 AM)36% (Aug 5, 4:20 PM)29.56 "Hg (Aug 10, 6:20 PM)
Average63 °F75%29.87 "Hg
* Reported Aug 5 7:20 AM — Aug 20 7:20 AM, Remscheid, Weather by CustomWeather, © 2014

Note: Actual official high and low records may vary slightly from our data, if they occured in-between our weather recording intervals... More about our weather records

Advertising

Remscheid weather history for previous 24 hours

 ConditionsComfort  
Time TempWeatherWind HumidityBarometerVisibility
7:20 AM
Aug 20
48 °FPassing clouds.8 mph87%30.01 "HgN/A
6:50 AM46 °FPassing clouds.8 mph87%30.01 "HgN/A
6:20 AM46 °FPassing clouds.9 mph87%29.98 "HgN/A
5:50 AM46 °FPassing clouds.7 mph87%29.98 "HgN/A
5:20 AM46 °FPassing clouds.8 mph87%29.98 "HgN/A
4:50 AM46 °FPassing clouds.8 mph87%29.98 "HgN/A
4:20 AM46 °FPassing clouds.7 mph87%29.98 "HgN/A
3:50 AM46 °FPassing clouds.7 mph87%29.98 "HgN/A
3:20 AM46 °FPassing clouds.7 mph87%29.98 "HgN/A
2:50 AM46 °FPassing clouds.7 mph87%29.98 "HgN/A
2:20 AM48 °FClear.8 mph82%29.98 "Hg10 mi
1:50 AM50 °FClear.8 mph76%29.98 "Hg10 mi
1:20 AM48 °FClear.6 mph87%29.98 "Hg10 mi
12:50 AM48 °FClear.7 mph82%29.95 "Hg10 mi
12:20 AM48 °FClear.9 mph82%29.98 "Hg10 mi
11:50 PM
Aug 19
48 °FClear.7 mph82%29.95 "Hg10 mi
11:20 PM50 °FClear.8 mph76%29.95 "Hg10 mi
10:50 PM50 °FClear.6 mph82%29.95 "Hg10 mi
10:20 PM50 °FClear.6 mph76%29.95 "Hg10 mi
9:50 PM54 °FPassing clouds.5 mph67%29.95 "HgN/A
9:20 PM55 °FScattered clouds.6 mph63%29.95 "HgN/A
8:50 PM55 °FPassing clouds.8 mph63%29.92 "HgN/A
8:20 PM57 °FPassing clouds.8 mph63%29.92 "HgN/A
7:50 PM59 °FScattered showers. Passing clouds.12 mph63%29.89 "HgN/A
7:20 PM59 °FScattered showers. Passing clouds.10 mph68%29.89 "HgN/A
6:50 PM59 °FScattered showers. Passing clouds.13 mph63%29.89 "HgN/A
6:20 PM61 °FScattered showers. Scattered clouds.15 mph55%29.86 "HgN/A
5:50 PM59 °FScattered showers. Partly sunny.15 mph59%29.86 "HgN/A
5:20 PM61 °FScattered showers. Partly sunny.16 mph63%29.86 "HgN/A
4:50 PM61 °FPartly sunny.15 mph63%29.86 "HgN/A
4:20 PM57 °FScattered showers. Partly sunny.15 mph67%29.86 "HgN/A
3:50 PM61 °FScattered showers. Broken clouds.18 mph55%29.83 "HgN/A
3:20 PM61 °FBroken clouds.10 mph68%29.83 "HgN/A
2:50 PM61 °FBroken clouds.15 mph63%29.83 "HgN/A
2:20 PM61 °FBroken clouds.17 mph63%29.83 "HgN/A
1:50 PM59 °FBroken clouds.14 mph72%29.83 "HgN/A
1:20 PM59 °FLight rain. Partly sunny.8 mph77%29.83 "HgN/A
12:50 PM55 °FScattered showers. Broken clouds.7 mph82%29.83 "HgN/A
12:20 PM59 °FSprinkles. Broken clouds.16 mph82%29.83 "HgN/A
11:50 AM59 °FScattered showers. Broken clouds.15 mph82%29.80 "HgN/A
11:20 AM57 °FBroken clouds.13 mph88%29.80 "HgN/A
10:50 AM57 °FBroken clouds.13 mph88%29.80 "HgN/A
10:20 AM57 °FBroken clouds.13 mph88%29.80 "HgN/A
9:50 AM57 °FBroken clouds.13 mph88%29.80 "HgN/A
9:20 AM55 °FBroken clouds.9 mph88%29.80 "HgN/A
8:50 AM55 °FScattered showers. Broken clouds.9 mph88%29.80 "HgN/A
8:20 AM55 °FRain showers. Broken clouds.3 mph82%29.80 "HgN/A
Weather by CustomWeather, © 2014

See weather overviewHow to use our weather pages